Location: Johnson City
(36.3130°N, 82.3540°W)
Time: 07:43:48
(UTC-04:00)

Tiangong 1 - Visible Passes

Search period start: 26 April 2017 00:00
Search period end: 06 May 2017 00:00
Orbit: 329 x 352 km, 42.8° (Epoch: 24 April)

Date Brightness Start Highest point End Pass type
(mag) Time Alt. Az. Time Alt. Az. Time Alt. Az.
26 Apr 3.3 04:33:00 22° NNE 04:33:00 22° NNE 04:34:49 10° ENE visible
26 Apr 0.7 06:05:35 10° WNW 06:08:25 89° S 06:11:15 10° ESE visible
27 Apr 2.0 04:54:19 38° N 04:54:37 39° NNE 04:57:18 10° E visible
28 Apr 0.6 05:15:50 45° WNW 05:16:34 83° SSW 05:19:23 10° ESE visible
29 Apr 1.8 05:37:36 24° WSW 05:38:16 26° SSW 05:40:42 10° SSE visible
01 May 2.5 21:06:21 10° S 21:08:15 17° SE 21:08:38 16° SE visible
02 May 0.9 21:26:48 10° SW 21:29:34 48° SSE 21:30:34 31° E visible
03 May 1.3 21:48:09 10° WSW 21:50:57 58° NNW 21:52:01 32° NE visible
04 May 2.6 22:09:51 10° WNW 22:12:24 29° NNW 22:13:01 26° NNE visible
05 May 1.5 20:55:02 10° WSW 20:57:50 55° NNW 21:00:37 10° ENE visible
05 May 3.3 22:31:35 10° WNW 22:33:39 21° NNW 22:33:39 21° NNW visible
